STARLINK-1500, 45744

Orbit data source: Space-Track

STARLINK-1500, 45744 is a payload satellite owned by SpaceX/Seattle (US) in LEO that was launched on Sat, 13 Jun 2020 UTC via an FALCON 9 launch vehicle from the Air Force Eastern Test Range (AFETR). Payload-class satellites include a variety of spacecraft equipped with specific instruments for various scientific and technological missions. These include communications satellites like Starlink; space stations such as the ISS; scientific satellites like the Hubble; Earth observation satellites from companies like Planet Labs, Umbra, and HawkEye 360; GPS; miniature CubeSats for education and research; and military/defense satellites.

Loading next visibility...
Identifier
45744, 2020-038Q
Orbit
LEO
Country
Flag of USUS
Related business
Manufacturer
SpaceX/Seattle
Mission
Partially operational Commercial Communications
Bus & Motor
STARLINK, Unknown motor
Mass
260 kg wet, ~248 kg dry
Launch date (UTC)
2020-06-13 (5 years ago)
Launch vehicle
FALCON 9
Launch site
Air Force Eastern Test Range (AFETR)
Object type
Payload
Rocket body
Debris
Shape & HBR
Box + 1 Pan, 10.1 m
Radar Cross Section
13.562 m², Large (>1 m²)

Expand to show TLE details & history
Last TLE update: 23 hours ago

TLE from 23 hours ago
0 STARLINK-1500
1 45744U 20038Q   25287.35113536  .00017951  00000-0  68677-3 0  9998
2 45744  53.0371 154.8648 0004998 129.7136 230.4303 15.26652852294406
Epoch: 2025-10-14T08:25Z
TLE epoch observation values (Epoch: 2025-10-14T08:25:38.095Z)
Latitude
0.00001°
Longitude
5.31527°
Altitude
488.898 km
Speed
7.621 km/s
True Right ascension
10h 19m 27s
True Declination
0° 00' 00"
Sunlit
Object was in daylight at epoch
Visualization orbit readout
Latitude
Unknown
Longitude
Unknown
Altitude
Unknown
Speed
Unknown
Apparent Right ascension
Unknown
Apparent Declination
Unknown
Sunlit
N/A
Visualization observer readout
Local Sidereal Time
02:09:17
Azimuth
Unknown
Elevation
Unknown
Doppler factor
Unknown
Orbital elements
Apogee altitude
489.533 km
Perigee altitude
482.672 km
Semi-major axis
6,864.24 km
Eccentricity
0.0005
Inclination
53.0371°
RAAN
154.8648°
Arg. of periapsis
129.7136°
True anomaly
230.38617°
Mean anomaly
230.4303°
Eccentric anomaly
230.40823°
Mean motion
3.81641 °/min
Orbital period
94.33 mins
BSTAR
0.00068677
Loading maneuver chart data...
Computing Atmospheric mass density...

Documentation

Showing up to 5 results
|